Date String (YYYY-MM-DD hh:mm:ss) UTC,Instrument flags,Ambient pressure (hPa),Sample flow (lpm),Bypass flow (lpm),Sample temperature (°C),Ambient temperature (°C),ASC tube jacket temperature (°C),LED temperature (°C),Box temperature (°C),Sample RH (%),Span deviation,Mass concentration (μg/m³),Mass concentration (μg/m³),Mass concentration (μg/m³)
DateTimeUTC,F1_M11,P_M11,Q1_M11,Q2_M11,T1_M11,T2_M11,T3_M11,T4_M11,T5_M11,U1_M11,ZSPAN_M11,X0_M11,X2_M11,X1_M11
2022-12-06 08:00:00,,0818.5,5.00,0.00,22.0,21.3,00.0,30.8,24.0,13.6,0000.0,0005.22,0001.68,0001.02
2022-12-06 08:01:00,,0818.5,5.00,0.00,22.0,21.2,00.0,30.9,24.0,13.7,0000.0,0004.66,0001.72,0001.02
2022-12-06 08:02:00,,0818.4,5.01,0.00,22.0,21.1,00.0,30.9,24.0,13.8,0000.0,0004.09,0001.73,0001.02
2022-12-06 08:03:00,,0818.4,5.00,0.00,22.0,21.0,00.0,30.9,24.0,14.0,0000.0,0004.56,0001.80,0001.02
2022-12-06 08:04:00,,0818.4,5.00,0.00,22.0,20.9,00.0,30.9,24.0,14.2,0000.0,0004.53,0001.77,0001.01
2022-12-06 08:05:00,,0818.3,5.00,0.00,22.0,20.9,00.0,30.9,23.9,14.2,0000.0,0004.10,0001.65,0000.98
2022-12-06 08:06:00,,0818.3,5.00,0.00,22.0,20.9,00.0,30.9,23.9,14.3,0000.0,0005.35,0001.61,0000.97
2022-12-06 08:07:00,,0818.3,5.00,0.00,22.0,20.9,00.0,30.9,23.9,14.2,0000.0,0006.00,0001.57,0000.94
2022-12-06 08:08:00,,0818.2,5.00,0.00,22.0,20.8,00.0,30.9,23.9,14.2,0000.0,0005.77,0001.55,0000.92
2022-12-06 08:09:00,,0818.2,5.00,0.00,22.0,20.8,00.0,30.9,24.0,14.4,0000.0,0006.30,0001.50,0000.90
2022-12-06 08:10:00,,0818.2,5.00,0.00,22.0,20.9,00.0,30.9,24.0,14.3,0000.0,0006.53,0001.49,0000.89
2022-12-06 08:11:00,,0818.2,5.00,0.00,22.0,20.9,00.0,30.9,23.9,14.6,0000.0,0006.40,0001.43,0000.87
2022-12-06 08:12:00,,0818.2,5.00,0.00,22.0,20.9,00.0,30.9,23.9,14.6,0000.0,0006.29,0001.35,0000.84
2022-12-06 08:13:00,,0818.3,5.00,0.00,22.0,20.9,00.0,30.9,23.9,14.7,0000.0,0006.24,0001.32,0000.82
2022-12-06 08:14:00,,0818.3,5.00,0.00,22.0,20.8,00.0,30.9,23.9,14.8,0000.0,0005.79,0001.24,0000.81
2022-12-06 08:15:00,,0818.3,5.00,0.00,22.0,20.8,00.0,30.9,23.9,14.8,0000.0,0005.96,0001.23,0000.81
2022-12-06 08:16:00,,0818.3,5.00,0.00,22.0,20.8,00.0,31.0,23.9,14.9,0000.0,0007.01,0001.25,0000.81
2022-12-06 08:17:00,,0818.2,5.00,0.00,22.0,20.8,00.0,31.0,23.9,15.1,0000.0,0005.73,0001.26,0000.80
2022-12-06 08:18:00,,0818.2,4.99,0.00,22.0,20.8,00.0,31.0,23.9,14.9,0000.0,0005.11,0001.28,0000.79
2022-12-06 08:19:00,,0818.2,5.00,0.00,22.0,20.7,00.0,31.0,23.9,14.7,0000.0,0005.66,0001.29,0000.79
2022-12-06 08:20:00,,0818.2,5.01,0.00,22.0,20.7,00.0,31.0,23.9,14.4,0000.0,0005.45,0001.28,0000.79
2022-12-06 08:21:00,,0818.4,5.01,0.00,22.0,20.7,00.0,31.0,23.9,14.1,0000.0,0005.31,0001.31,0000.79
2022-12-06 08:22:00,,0818.4,5.00,0.00,22.0,20.7,00.0,31.0,23.9,14.1,0000.0,0005.49,0001.38,0000.82
2022-12-06 08:23:00,,0818.4,4.99,0.00,22.0,20.7,00.0,30.9,23.9,14.8,0000.0,0005.47,0001.40,0000.82
2022-12-06 08:24:00,,0818.4,4.99,0.00,22.0,20.7,00.0,30.9,23.8,15.2,0000.0,0005.61,0001.39,0000.83
2022-12-06 08:25:00,,0818.7,4.99,0.00,22.0,20.6,00.0,30.9,23.8,15.4,0000.0,0005.63,0001.40,0000.84
2022-12-06 08:26:00,,0818.7,4.99,0.00,22.0,20.6,00.0,30.9,23.8,15.4,0000.0,0005.52,0001.40,0000.83
2022-12-06 08:27:00,,0818.8,5.00,0.00,22.0,20.6,00.0,30.9,23.9,15.5,0000.0,0004.49,0001.41,0000.83
2022-12-06 08:28:00,,0818.8,5.00,0.00,22.0,20.6,00.0,30.9,23.8,15.5,0000.0,0004.57,0001.42,0000.84
2022-12-06 08:29:00,,0818.9,5.00,0.00,22.0,20.6,00.0,30.9,23.8,15.3,0000.0,0004.78,0001.40,0000.84
2022-12-06 08:30:00,,0818.9,5.00,0.00,21.9,20.5,00.0,30.9,23.8,15.3,0000.0,0004.47,0001.40,0000.86
2022-12-06 08:31:00,,0819.0,5.00,0.00,21.9,20.5,00.0,30.9,23.7,15.4,0000.0,0003.94,0001.42,0000.86
2022-12-06 08:32:00,,0818.9,4.99,0.00,21.9,20.5,00.0,30.9,23.7,15.4,0000.0,0004.41,0001.45,0000.86
2022-12-06 08:33:00,,0818.9,5.00,0.00,21.9,20.5,00.0,30.9,23.7,15.6,0000.0,0004.33,0001.43,0000.85
2022-12-06 08:34:00,,0818.9,5.01,0.00,21.9,20.5,00.0,30.9,23.6,16.0,0000.0,0004.27,0001.45,0000.86
2022-12-06 08:35:00,,0818.9,5.00,0.00,21.9,20.5,00.0,30.9,23.5,16.3,0000.0,0004.29,0001.46,0000.87
2022-12-06 08:36:00,,0818.9,5.00,0.00,21.9,20.4,00.0,30.9,23.5,16.4,0000.0,0004.74,0001.56,0000.90
2022-12-06 08:37:00,,0818.9,5.00,0.00,21.8,20.4,00.0,30.9,23.5,16.5,0000.0,0004.98,0001.64,0000.94
2022-12-06 08:38:00,,0818.9,5.00,0.00,21.8,20.3,00.0,30.8,23.4,16.4,0000.0,0005.78,0001.72,0000.98
2022-12-06 08:39:00,,0819.0,5.00,0.00,21.8,20.3,00.0,30.8,23.5,16.5,0000.0,0005.97,0001.76,0001.02
2022-12-06 08:40:00,,0818.9,4.99,0.00,21.8,20.3,00.0,30.8,23.5,16.6,0000.0,0006.84,0001.75,0001.06
2022-12-06 08:41:00,,0818.9,5.00,0.00,21.8,20.3,00.0,30.8,23.5,16.6,0000.0,0006.69,0001.77,0001.08
2022-12-06 08:42:00,,0818.9,4.99,0.00,21.8,20.3,00.0,30.8,23.5,16.6,0000.0,0006.50,0001.80,0001.11
2022-12-06 08:43:00,,0819.0,5.00,0.00,21.8,20.6,00.0,30.7,23.6,16.6,0000.0,0006.27,0001.78,0001.14
2022-12-06 08:44:00,,0819.0,5.01,0.00,21.9,21.4,00.0,30.7,23.8,16.5,0000.0,0006.40,0001.78,0001.17
2022-12-06 08:45:00,,0819.0,5.00,0.00,22.0,22.2,00.0,30.7,24.1,16.5,0000.0,0006.68,0001.82,0001.19
2022-12-06 08:46:00,,0819.1,4.99,0.00,22.1,22.1,00.0,30.8,24.1,16.5,0000.0,0006.66,0001.86,0001.20
2022-12-06 08:47:00,,0819.1,4.98,0.00,22.1,21.7,00.0,30.9,24.1,16.4,0000.0,0006.29,0001.84,0001.21
2022-12-06 08:48:00,,0819.2,5.01,0.00,22.1,21.5,00.0,30.9,24.0,16.4,0000.0,0006.08,0001.80,0001.21
2022-12-06 08:49:00,,0819.3,5.01,0.00,22.1,21.2,00.0,30.9,23.9,16.5,0000.0,0005.42,0001.77,0001.20
2022-12-06 08:50:00,,0819.3,5.00,0.00,22.1,21.1,00.0,30.9,23.9,16.4,0000.0,0005.36,0001.77,0001.20
2022-12-06 08:51:00,,0819.4,4.99,0.00,22.1,20.9,00.0,30.9,23.8,16.4,0000.0,0004.35,0001.82,0001.20
2022-12-06 08:52:00,,0819.5,4.99,0.00,22.0,20.8,00.0,30.9,23.8,16.5,0000.0,0004.34,0001.86,0001.21
2022-12-06 08:53:00,,0819.5,4.99,0.00,22.0,20.7,00.0,30.9,23.8,16.8,0000.0,0004.37,0001.83,0001.20
2022-12-06 08:54:00,,0819.5,5.01,0.00,22.0,20.6,00.0,30.9,23.8,17.3,0000.0,0004.00,0001.87,0001.22
2022-12-06 08:55:00,,0819.5,5.01,0.00,22.0,20.5,00.0,30.9,23.7,17.8,0000.0,0003.94,0001.94,0001.25
2022-12-06 08:56:00,,0819.6,5.00,0.00,21.9,20.4,00.0,30.9,23.6,18.2,0000.0,0003.77,0001.94,0001.27
2022-12-06 08:57:00,,0819.7,5.00,0.00,21.9,20.3,00.0,30.9,23.6,18.5,0000.0,0003.70,0001.97,0001.30
2022-12-06 08:58:00,,0819.6,5.00,0.00,21.9,20.3,00.0,30.9,23.6,18.8,0000.0,0004.08,0001.97,0001.32
2022-12-06 08:59:00,,0819.5,4.99,0.00,21.9,20.2,00.0,30.9,23.5,19.0,0000.0,0004.31,0002.01,0001.32
